Time,TemperatureF,DewpointF,PressureIn,WindDirection,WindDirectionDegrees,WindSpeedMPH,WindSpeedGustMPH,Humidity,HourlyPrecipIn,Conditions,Clouds,dailyrainin,SoftwareType,DateUTC
2013-02-26 00:12:00,36.5,34.0,30.10,ENE,70,3.0,3.0,89,0.00,,,0.00,weatherlink.com 1.10,2013-02-25 23:12:00,
2013-02-26 00:27:00,37.4,35.0,30.09,East,89,4.0,4.0,89,0.00,,,0.00,weatherlink.com 1.10,2013-02-25 23:27:00,
2013-02-26 00:42:00,36.9,34.0,30.09,ENE,68,4.0,6.0,89,0.00,,,0.00,weatherlink.com 1.10,2013-02-25 23:42:00,
2013-02-26 00:57:00,37.6,34.0,30.09,ENE,63,4.0,9.0,88,0.00,,,0.00,weatherlink.com 1.10,2013-02-25 23:57:00,
2013-02-26 01:12:00,37.6,35.0,30.09,NE,56,2.0,11.0,89,0.00,,,0.00,weatherlink.com 1.10,2013-02-26 00:12:00,
2013-02-26 01:27:00,37.2,35.0,30.10,ENE,67,8.0,12.0,90,0.00,,,0.00,weatherlink.com 1.10,2013-02-26 00:27:00,
2013-02-26 01:42:00,37.0,35.0,30.10,ENE,70,6.0,12.0,91,0.00,,,0.00,weatherlink.com 1.10,2013-02-26 00:42:00,
2013-02-26 01:57:00,36.9,35.0,30.10,NNE,32,8.0,13.0,92,0.00,,,0.00,weatherlink.com 1.10,2013-02-26 00:57:00,
2013-02-26 02:12:00,36.9,35.0,30.09,ENE,60,5.0,10.0,92,0.00,,,0.00,weatherlink.com 1.10,2013-02-26 01:12:00,
2013-02-26 02:27:00,36.6,35.0,30.09,NE,38,4.0,8.0,92,0.00,,,0.00,weatherlink.com 1.10,2013-02-26 01:27:00,
2013-02-26 02:42:00,36.8,35.0,30.09,NE,51,3.0,9.0,93,0.00,,,0.00,weatherlink.com 1.10,2013-02-26 01:42:00,
2013-02-26 02:57:00,36.7,35.0,30.09,ESE,110,2.0,6.0,92,0.00,,,0.00,weatherlink.com 1.10,2013-02-26 01:57:00,
2013-02-26 03:12:00,36.7,35.0,30.09,ENE,77,3.0,6.0,93,0.00,,,0.00,weatherlink.com 1.10,2013-02-26 02:12:00,
2013-02-26 03:27:00,37.0,35.0,30.09,NE,37,6.0,7.0,93,0.00,,,0.00,weatherlink.com 1.10,2013-02-26 02:27:00,
2013-02-26 03:42:00,36.9,35.0,30.09,ENE,72,4.0,7.0,93,0.00,,,0.00,weatherlink.com 1.10,2013-02-26 02:42:00,
2013-02-26 03:57:00,36.9,35.0,30.09,NE,48,1.0,5.0,92,0.00,,,0.00,weatherlink.com 1.10,2013-02-26 02:57:00,
2013-02-26 04:12:00,37.1,35.0,30.09,NE,38,1.0,6.0,92,0.00,,,0.00,weatherlink.com 1.10,2013-02-26 03:12:00,
2013-02-26 04:27:00,37.5,35.0,30.08,NNE,27,4.0,9.0,92,0.00,,,0.00,weatherlink.com 1.10,2013-02-26 03:27:00,
2013-02-26 04:42:00,37.5,35.0,30.08,NE,35,5.0,8.0,90,0.00,,,0.00,weatherlink.com 1.10,2013-02-26 03:42:00,
2013-02-26 04:57:00,37.6,35.0,30.08,NE,46,3.0,7.0,91,0.00,,,0.00,weatherlink.com 1.10,2013-02-26 03:57:00,
2013-02-26 05:12:00,37.7,35.0,30.08,NNE,13,5.0,7.0,90,0.00,,,0.00,weatherlink.com 1.10,2013-02-26 04:12:00,
2013-02-26 05:27:00,37.6,35.0,30.08,NE,53,4.0,8.0,90,0.00,,,0.00,weatherlink.com 1.10,2013-02-26 04:27:00,
2013-02-26 05:42:00,37.4,35.0,30.08,ENE,57,6.0,9.0,90,0.00,,,0.00,weatherlink.com 1.10,2013-02-26 04:42:00,
2013-02-26 05:57:00,37.7,35.0,30.07,NE,53,5.0,10.0,89,0.00,,,0.00,weatherlink.com 1.10,2013-02-26 04:57:00,
2013-02-26 06:12:00,37.7,35.0,30.07,NNE,20,8.0,12.0,89,0.00,,,0.00,weatherlink.com 1.10,2013-02-26 05:12:00,
2013-02-26 06:27:00,37.8,35.0,30.07,NNE,29,4.0,11.0,89,0.00,,,0.00,weatherlink.com 1.10,2013-02-26 05:27:00,
2013-02-26 06:42:00,37.7,35.0,30.07,NNE,32,12.0,12.0,90,0.00,,,0.00,weatherlink.com 1.10,2013-02-26 05:42:00,
2013-02-26 06:57:00,37.7,35.0,30.07,NE,39,5.0,10.0,90,0.00,,,0.00,weatherlink.com 1.10,2013-02-26 05:57:00,
2013-02-26 07:12:00,37.8,35.0,30.08,NNE,30,3.0,9.0,89,0.00,,,0.00,weatherlink.com 1.10,2013-02-26 06:12:00,
2013-02-26 07:27:00,37.7,35.0,30.08,NNE,18,4.0,8.0,89,0.00,,,0.00,weatherlink.com 1.10,2013-02-26 06:27:00,
2013-02-26 07:42:00,37.8,35.0,30.09,NE,46,1.0,6.0,89,0.00,,,0.00,weatherlink.com 1.10,2013-02-26 06:42:00,
2013-02-26 07:57:00,38.2,35.0,30.09,NE,43,3.0,7.0,88,0.00,,,0.00,weatherlink.com 1.10,2013-02-26 06:57:00,
2013-02-26 08:12:00,39.1,35.0,30.10,North,8,4.0,6.0,86,0.00,,,0.00,weatherlink.com 1.10,2013-02-26 07:12:00,
2013-02-26 08:27:00,39.5,35.0,30.10,NE,44,11.0,11.0,85,0.00,,,0.00,weatherlink.com 1.10,2013-02-26 07:27:00,
2013-02-26 08:42:00,39.8,35.0,30.11,NNE,22,4.0,10.0,83,0.00,,,0.00,weatherlink.com 1.10,2013-02-26 07:42:00,
2013-02-26 08:58:00,40.1,35.0,30.11,NE,37,4.0,8.0,82,0.00,,,0.00,weatherlink.com 1.10,2013-02-26 07:58:00,
2013-02-26 09:13:00,40.9,36.0,30.11,NNE,27,6.0,8.0,82,0.00,,,0.00,weatherlink.com 1.10,2013-02-26 08:13:00,
2013-02-26 09:28:00,42.2,36.0,30.11,NE,42,5.0,9.0,79,0.00,,,0.00,weatherlink.com 1.10,2013-02-26 08:28:00,
2013-02-26 09:43:00,42.9,36.0,30.11,NNW,345,5.0,7.0,76,0.00,,,0.00,weatherlink.com 1.10,2013-02-26 08:43:00,
2013-02-26 09:58:00,43.6,35.0,30.11,ENE,60,4.0,9.0,73,0.00,,,0.00,weatherlink.com 1.10,2013-02-26 08:58:00,
2013-02-26 10:13:00,44.0,35.0,30.11,NNE,32,4.0,10.0,72,0.00,,,0.00,weatherlink.com 1.10,2013-02-26 09:13:00,
2013-02-26 10:28:00,44.2,36.0,30.11,ENE,68,5.0,9.0,73,0.00,,,0.00,weatherlink.com 1.10,2013-02-26 09:28:00,
2013-02-26 10:43:00,45.0,36.0,30.12,North,354,7.0,10.0,70,0.00,,,0.00,weatherlink.com 1.10,2013-02-26 09:43:00,
2013-02-26 10:58:00,45.8,37.0,30.12,NNE,18,3.0,10.0,70,0.00,,,0.00,weatherlink.com 1.10,2013-02-26 09:58:00,
2013-02-26 11:13:00,46.3,37.0,30.12,ENE,59,5.0,9.0,70,0.00,,,0.00,weatherlink.com 1.10,2013-02-26 10:13:00,
2013-02-26 11:28:00,46.7,36.0,30.12,NE,54,5.0,10.0,67,0.00,,,0.00,weatherlink.com 1.10,2013-02-26 10:28:00,
2013-02-26 11:43:00,46.2,36.0,30.12,NNE,23,3.0,9.0,67,0.00,,,0.00,weatherlink.com 1.10,2013-02-26 10:43:00,
2013-02-26 11:58:00,47.5,37.0,30.12,NE,43,4.0,11.0,66,0.00,,,0.00,weatherlink.com 1.10,2013-02-26 10:58:00,
2013-02-26 12:13:00,46.9,36.0,30.12,North,5,5.0,12.0,66,0.00,,,0.00,weatherlink.com 1.10,2013-02-26 11:13:00,
2013-02-26 12:28:00,46.3,36.0,30.12,NE,49,8.0,14.0,68,0.00,,,0.00,weatherlink.com 1.10,2013-02-26 11:28:00,
2013-02-26 12:43:00,46.1,39.0,30.12,ENE,76,7.0,13.0,75,0.00,,,0.00,weatherlink.com 1.10,2013-02-26 11:43:00,
2013-02-26 12:58:00,46.8,39.0,30.11,ESE,104,6.0,13.0,73,0.00,,,0.00,weatherlink.com 1.10,2013-02-26 11:58:00,
2013-02-26 13:13:00,47.1,37.0,30.11,NE,54,4.0,13.0,69,0.00,,,0.00,weatherlink.com 1.10,2013-02-26 12:13:00,
2013-02-26 13:28:00,46.8,35.0,30.11,ENE,66,5.0,7.0,65,0.00,,,0.00,weatherlink.com 1.10,2013-02-26 12:28:00,
2013-02-26 13:43:00,45.4,37.0,30.11,NW,307,4.0,9.0,72,0.00,,,0.00,weatherlink.com 1.10,2013-02-26 12:43:00,
2013-02-26 13:58:00,44.7,37.0,30.11,WNW,283,4.0,9.0,75,0.00,,,0.00,weatherlink.com 1.10,2013-02-26 12:58:00,
2013-02-26 14:13:00,45.0,37.0,30.11,NNW,345,4.0,9.0,74,0.00,,,0.00,weatherlink.com 1.10,2013-02-26 13:13:00,
2013-02-26 14:28:00,46.1,36.0,30.10,NE,47,3.0,9.0,67,0.00,,,0.00,weatherlink.com 1.10,2013-02-26 13:28:00,
2013-02-26 14:44:00,46.4,36.0,30.10,NE,40,5.0,9.0,67,0.00,,,0.00,weatherlink.com 1.10,2013-02-26 13:44:00,
2013-02-26 14:58:00,47.2,35.0,30.11,East,80,3.0,6.0,64,0.00,,,0.00,weatherlink.com 1.10,2013-02-26 13:58:00,
2013-02-26 15:14:00,46.4,36.0,30.10,ENE,61,7.0,12.0,67,0.00,,,0.00,weatherlink.com 1.10,2013-02-26 14:14:00,
2013-02-26 15:29:00,45.7,36.0,30.10,NE,48,4.0,13.0,70,0.00,,,0.00,weatherlink.com 1.10,2013-02-26 14:29:00,
2013-02-26 15:44:00,45.8,36.0,30.11,ENE,71,4.0,11.0,69,0.00,,,0.00,weatherlink.com 1.10,2013-02-26 14:44:00,
2013-02-26 15:59:00,45.7,35.0,30.11,ENE,60,9.0,12.0,67,0.00,,,0.00,weatherlink.com 1.10,2013-02-26 14:59:00,
2013-02-26 16:14:00,46.3,35.0,30.11,ENE,73,2.0,13.0,66,0.00,,,0.00,weatherlink.com 1.10,2013-02-26 15:14:00,
2013-02-26 16:29:00,46.6,35.0,30.11,NE,41,10.0,15.0,65,0.00,,,0.00,weatherlink.com 1.10,2013-02-26 15:29:00,
2013-02-26 16:44:00,46.8,35.0,30.10,NE,54,10.0,14.0,65,0.00,,,0.00,weatherlink.com 1.10,2013-02-26 15:44:00,
2013-02-26 16:59:00,47.0,36.0,30.11,NE,49,8.0,11.0,65,0.00,,,0.00,weatherlink.com 1.10,2013-02-26 15:59:00,
2013-02-26 17:14:00,45.9,35.0,30.11,NE,56,7.0,13.0,66,0.00,,,0.00,weatherlink.com 1.10,2013-02-26 16:14:00,
2013-02-26 17:29:00,45.3,35.0,30.11,NE,49,9.0,13.0,67,0.00,,,0.00,weatherlink.com 1.10,2013-02-26 16:29:00,
2013-02-26 17:44:00,45.0,35.0,30.12,ENE,60,4.0,11.0,67,0.00,,,0.00,weatherlink.com 1.10,2013-02-26 16:44:00,
2013-02-26 17:59:00,44.9,34.0,30.13,ENE,57,7.0,11.0,67,0.00,,,0.00,weatherlink.com 1.10,2013-02-26 16:59:00,
2013-02-26 18:14:00,44.5,34.0,30.13,ENE,61,9.0,11.0,68,0.00,,,0.00,weatherlink.com 1.10,2013-02-26 17:14:00,
2013-02-26 18:29:00,44.2,35.0,30.14,NE,49,6.0,11.0,69,0.00,,,0.00,weatherlink.com 1.10,2013-02-26 17:29:00,
2013-02-26 18:44:00,43.7,34.0,30.14,NE,44,8.0,9.0,70,0.00,,,0.00,weatherlink.com 1.10,2013-02-26 17:44:00,
2013-02-26 18:59:00,43.1,35.0,30.14,NE,48,4.0,8.0,72,0.00,,,0.00,weatherlink.com 1.10,2013-02-26 17:59:00,
2013-02-26 19:14:00,42.7,35.0,30.15,NE,34,5.0,9.0,73,0.00,,,0.00,weatherlink.com 1.10,2013-02-26 18:14:00,
2013-02-26 19:29:00,42.3,35.0,30.16,NNE,28,3.0,7.0,74,0.00,,,0.00,weatherlink.com 1.10,2013-02-26 18:29:00,
2013-02-26 19:44:00,41.7,35.0,30.16,NE,37,6.0,8.0,76,0.00,,,0.00,weatherlink.com 1.10,2013-02-26 18:44:00,
2013-02-26 19:59:00,41.4,34.0,30.17,NE,54,4.0,8.0,76,0.00,,,0.00,weatherlink.com 1.10,2013-02-26 18:59:00,
2013-02-26 20:14:00,41.2,34.0,30.16,NE,51,3.0,8.0,75,0.00,,,0.00,weatherlink.com 1.10,2013-02-26 19:14:00,
2013-02-26 20:29:00,41.2,34.0,30.17,NNE,30,5.0,8.0,74,0.00,,,0.00,weatherlink.com 1.10,2013-02-26 19:29:00,
2013-02-26 20:44:00,41.4,33.0,30.17,NNE,32,3.0,6.0,73,0.00,,,0.00,weatherlink.com 1.10,2013-02-26 19:44:00,
2013-02-26 20:59:00,39.9,33.0,30.17,North,8,2.0,3.0,75,0.00,,,0.00,weatherlink.com 1.10,2013-02-26 19:59:00,
2013-02-26 21:14:00,39.0,32.0,30.18,NNW,345,1.0,2.0,77,0.00,,,0.00,weatherlink.com 1.10,2013-02-26 20:14:00,
2013-02-26 21:30:00,39.2,33.0,30.18,NNW,346,1.0,3.0,77,0.00,,,0.00,weatherlink.com 1.10,2013-02-26 20:30:00,
2013-02-26 21:44:00,39.3,32.0,30.18,NNE,30,2.0,3.0,76,0.00,,,0.00,weatherlink.com 1.10,2013-02-26 20:44:00,
2013-02-26 21:59:00,39.2,32.0,30.18,NNE,25,0.0,1.0,76,0.00,,,0.00,weatherlink.com 1.10,2013-02-26 20:59:00,
2013-02-26 22:14:00,39.7,33.0,30.18,North,357,1.0,2.0,77,0.00,,,0.00,weatherlink.com 1.10,2013-02-26 21:14:00,
2013-02-26 22:29:00,39.9,33.0,30.18,North,359,0.0,1.0,77,0.00,,,0.00,weatherlink.com 1.10,2013-02-26 21:29:00,
2013-02-26 22:44:00,40.2,34.0,30.18,North,358,0.0,1.0,77,0.00,,,0.00,weatherlink.com 1.10,2013-02-26 21:44:00,
2013-02-26 22:59:00,40.5,34.0,30.18,North,359,0.0,1.0,76,0.00,,,0.00,weatherlink.com 1.10,2013-02-26 21:59:00,
2013-02-26 23:14:00,40.5,34.0,30.18,North,358,0.0,0.0,76,0.00,,,0.00,weatherlink.com 1.10,2013-02-26 22:14:00,
2013-02-26 23:29:00,40.3,33.0,30.19,North,359,0.0,1.0,76,0.00,,,0.00,weatherlink.com 1.10,2013-02-26 22:29:00,
2013-02-26 23:44:00,40.0,33.0,30.18,North,359,1.0,1.0,75,0.00,,,0.00,weatherlink.com 1.10,2013-02-26 22:44:00,
2013-02-26 23:59:00,39.7,33.0,30.18,NNE,15,0.0,1.0,77,0.00,,,0.00,weatherlink.com 1.10,2013-02-26 22:59:00,